User: anonymous   Login
Location: Demmingen
(48.6757°N, 10.4375°E)
Time: 22:56:48
(UTC+00:00)
Language:

Cosmos 2228 Rocket - Orbit

View from above orbital plane
View from above orbital plane
View from above satellite
View from above satellite

Ground track
Ground track

The orbit data is extracted from the following two-line orbital elements,

1 22287U 92094B   24194.46277105  .00000553  00000-0  71130-4 0  9996
2 22287  82.5231 196.1890 0024908 156.8254 203.4088 14.79117959679024
Epoch (UTC): 12 July 2024 11:06:23
Eccentricity: 0.0024908
inclination: 82.5231°
perigee height: 614 km
apogee height: 649 km
right ascension of ascending node: 196.1890°
argument of perigee: 156.8254°
revolutions per day: 14.79117959
mean anomaly at epoch: 203.4088°
orbit number at epoch: 67902

The dashed part of the orbit path shows where the satellite is in the earth's shadow,  

DLR